FW4027 Weather Reports


time (UTC)temp
F
wind
direction
speed
knots
gust
knots
rain 1hr
in
rain 24hr
in
rain mn
in
humidity
%
barometer
mb
20260906092902 83 0 9.6 13.0 0.00 0.00 0.00 44 1015.7
20260906092402 83 0 9.6 13.0 0.00 0.00 0.00 45 1015.8
20260906092126 82 0 9.6 13.0 0.00 0.00 0.00 47 1015.9
20260906091402 83 0 7.8 12.2 0.00 0.00 0.00 48 1015.9
20260906090903 82 0 5.2 10.4 0.00 0.00 0.00 47 1015.9
20260906090402 82 0 6.1 12.2 0.00 0.00 0.00 48 1015.9
20260906085902 82 0 6.1 13.0 0.00 0.00 0.00 49 1015.9
20260906085402 82 0 7.8 13.9 0.00 0.00 0.00 50 1015.9
20260906084901 81 0 7.8 13.9 0.00 0.00 0.00 50 1015.9
20260906084403 82 0 10.4 12.2 0.00 0.00 0.00 49 1015.9
20260906083904 82 0 10.4 12.2 0.00 0.00 0.00 48 1015.9
20260906083403 82 0 8.7 12.2 0.00 0.00 0.00 47 1015.9
20260906083126 82 0 9.6 12.2 0.00 0.00 0.00 47 1015.9
20260906082341 81 337 6.1 13.0 0.00 0.00 0.00 50 1015.9
20260906081839 81 0 7.0 13.0 0.00 0.00 0.00 50 1015.8
20260906081338 81 238 6.1 11.3 0.00 0.00 0.00 49 1016.0
20260906080833 82 0 7.8 13.0 0.00 0.00 0.00 47 1015.9
20260906080331 82 0 9.6 13.0 0.00 0.00 0.00 46 1015.8
20260906075830 82 0 6.1 14.8 0.00 0.00 0.00 47 1015.7
20260906075322 82 0 8.7 14.8 0.00 0.00 0.00 46 1015.7
20260906074817 83 0 7.0 13.9 0.00 0.00 0.00 44 1015.6
20260906074317 83 0 6.1 14.8 0.00 0.00 0.00 47 1015.7
20260906073815 82 0 7.8 14.8 0.00 0.00 0.00 48 1015.7
20260906073316 81 0 10.4 14.8 0.00 0.00 0.00 51 1015.5
20260906072813 80 0 10.4 14.8 0.00 0.00 0.00 51 1015.6
20260906072314 80 0 9.6 13.0 0.00 0.00 0.00 52 1015.6
20260906071814 80 0 10.4 13.0 0.00 0.00 0.00 53 1015.6
20260906071534 80 0 8.7 11.3 0.00 0.00 0.00 53 1015.7
20260906070807 80 0 7.8 11.3 0.00 0.00 0.00 53 1015.7
20260906070309 80 0 8.7 11.3 0.00 0.00 0.00 53 1015.9
20260906065807 80 0 6.1 8.7 0.00 0.00 0.00 53 1015.9
20260906065530 79 276 5.2 9.6 0.00 0.00 0.00 53 1015.8
20260906064806 79 0 6.1 9.6 0.00 0.00 0.00 53 1015.8
20260906064307 79 0 5.2 9.6 0.00 0.00 0.00 54 1015.6
20260906063805 79 0 6.1 9.6 0.00 0.00 0.00 54 1015.5
20260906063306 79 0 5.2 8.7 0.00 0.00 0.00 53 1015.4
20260906062805 79 0 5.2 8.7 0.00 0.00 0.00 53 1015.5
20260906062535 79 0 5.2 8.7 0.00 0.00 0.00 53 1015.4
20260906061804 79 0 3.5 8.7 0.00 0.00 0.00 52 1015.4
20260906061756 79 0 5.2 8.7 0.00 0.00 0.00 52 1015.4
20260906061248 79 0 5.2 9.6 0.00 0.00 0.00 53 1015.3
20260906061004 79 1 3.5 8.7 0.00 0.00 0.00 53 1015.3
20260906060029 79 10 6.1 9.6 0.00 0.00 0.00 53 1015.3
20260906055306 78 0 5.2 9.6 0.00 0.00 0.00 53 1015.3
20260906055256 78 0 5.2 12.2 0.00 0.00 0.00 54 1015.2
20260906054305 78 0 7.8 12.2 0.00 0.00 0.00 53 1015.1
20260906053803 78 0 7.0 11.3 0.00 0.00 0.00 54 1015.0
20260906053305 78 0 6.1 11.3 0.00 0.00 0.00 54 1015.0
20260906052803 78 0 6.1 11.3 0.00 0.00 0.00 54 1015.0
20260906052305 77 0 7.8 11.3 0.00 0.00 0.00 55 1014.9
20260906051802 77 0 7.8 11.3 0.00 0.00 0.00 55 1015.0
20260906051304 77 350 8.7 11.3 0.00 0.00 0.00 56 1015.0
20260906050802 76 0 6.1 10.4 0.00 0.00 0.00 56 1015.0
20260906050303 76 0 4.3 9.6 0.00 0.00 0.00 57 1015.0
20260906045802 76 0 4.3 9.6 0.00 0.00 0.00 57 1014.9
20260906045305 75 0 5.2 8.7 0.00 0.00 0.00 57 1014.9
20260906044802 75 0 4.3 7.8 0.00 0.00 0.00 58 1014.8
20260906044303 74 0 4.3 7.8 0.00 0.00 0.00 58 1014.8
20260906043802 75 4 2.6 7.8 0.00 0.00 0.00 58 1014.8
20260906043302 75 0 5.2 8.7 0.00 0.00 0.00 59 1014.8
20260906042804 74 0 4.3 8.7 0.00 0.00 0.00 59 1014.6
20260906042306 74 0 4.3 7.8 0.00 0.00 0.00 59 1014.6
20260906041802 73 0 3.5 5.2 0.00 0.00 0.00 59 1014.7
20260906041300 73 58 0.0 4.3 0.00 0.00 0.00 59 1014.6
20260906040800 73 0 2.6 4.3 0.00 0.00 0.00 60 1014.6
20260906040529 72 183 0.0 0.9 0.00 0.00 0.00 60 1014.5
20260906035800 73 183 0.0 1.7 0.00 0.00 0.00 60 1014.5
20260906035300 73 183 0.0 1.7 0.00 0.00 0.00 60 1014.5
20260906034801 73 183 0.0 1.7 0.00 0.00 0.00 60 1014.4
20260906034301 73 69 0.0 0.9 0.00 0.00 0.00 60 1014.5
20260906034031 73 3 0.0 0.9 0.00 0.00 0.00 60 1014.4
20260906033300 73 354 0.0 1.7 0.00 0.00 0.00 60 1014.4
20260906032800 74 354 0.9 1.7 0.00 0.00 0.00 60 1014.4
20260906032305 74 0 0.0 0.0 0.00 0.00 0.00 60 1014.3
20260906031759 74 0 0.0 2.6 0.00 0.00 0.00 60 1014.4
20260906031300 74 0 0.0 5.2 0.00 0.00 0.00 60 1014.3
20260906030800 74 345 3.5 5.2 0.00 0.00 0.00 60 1014.4
20260906030259 74 326 1.7 2.6 0.00 0.00 0.00 61 1014.4
20260906025759 74 334 1.7 5.2 0.00 0.00 0.00 61 1014.3
20260906025259 74 312 3.5 6.1 0.00 0.00 0.00 61 1014.2
20260906024759 74 0 4.3 6.1 0.00 0.00 0.00 61 1014.3
20260906024300 73 0 3.5 4.3 0.00 0.00 0.00 62 1014.3
20260906023757 73 0 0.9 3.5 0.00 0.00 0.00 61 1014.3
20260906023257 72 0 1.7 3.5 0.00 0.00 0.00 61 1014.3
20260906023240 72 69 0.0 1.7 0.00 0.00 0.00 61 1014.3
20260906022522 72 69 0.0 1.7 0.00 0.00 0.00 61 1014.3
20260906021756 72 69 0.0 1.7 0.00 0.00 0.00 61 1014.4
20260906021256 72 71 0.0 1.7 0.00 0.00 0.00 60 1014.4
20260906020757 72 69 0.0 1.7 0.00 0.00 0.00 60 1014.3
20260906020256 72 69 0.0 2.6 0.00 0.00 0.00 61 1014.3
20260906015757 73 65 0.0 2.6 0.00 0.00 0.00 61 1014.1
20260906015257 73 65 0.9 3.5 0.00 0.00 0.00 61 1014.2
20260906014756 73 4 0.9 3.5 0.00 0.00 0.00 61 1014.1
20260906014256 73 358 1.7 4.3 0.00 0.00 0.00 61 1014.2
20260906013754 73 0 2.6 4.3 0.00 0.00 0.00 61 1014.2
20260906013233 73 1 2.6 3.5 0.00 0.00 0.00 62 1014.4
20260906012733 73 0 2.6 4.3 0.00 0.00 0.00 62 1014.4
20260906012452 73 0 1.7 4.3 0.00 0.00 0.00 61 1014.4
20260906011707 73 0 2.6 3.5 0.00 0.00 0.00 61 1014.4
20260906011207 74 38 0.0 1.7 0.00 0.00 0.00 61 1014.5
20260906010705 73 41 0.9 3.5 0.00 0.00 0.00 61 1014.5
20260906010429 73 23 1.7 3.5 0.00 0.00 0.00 61 1014.5
20260906005657 73 32 0.9 4.3 0.00 0.00 0.00 61 1014.5
20260906005157 73 348 2.6 4.3 0.00 0.00 0.00 61 1014.5
20260906004657 74 44 0.9 3.5 0.00 0.00 0.00 60 1014.6
20260906004157 74 24 1.7 4.3 0.00 0.00 0.00 60 1014.5
20260906003922 74 7 2.6 6.1 0.00 0.00 0.00 61 1014.5
20260906003156 74 0 3.5 6.1 0.00 0.00 0.00 60 1014.5
20260906002926 75 31 1.7 6.1 0.00 0.00 0.00 60 1014.5
20260906002156 75 16 2.6 6.1 0.00 0.00 0.00 60 1014.5
20260906001656 74 355 2.6 3.5 0.00 0.00 0.00 60 1014.5
20260906001155 74 17 1.7 2.6 0.00 0.00 0.00 60 1014.5
20260906000655 75 323 1.7 2.6 0.00 0.00 0.00 60 1014.5
20260906000156 75 56 2.6 3.5 0.00 0.00 0.00 60 1014.4
20260905235655 75 10 1.7 5.2 0.00 0.00 0.00 60 1014.4
20260905235156 75 0 3.5 5.2 0.00 0.00 0.00 60 1014.5
20260905234656 75 355 5.2 5.2 0.00 0.00 0.00 60 1014.4
20260905234155 75 353 3.5 4.3 0.00 0.00 0.00 59 1014.4
20260905233656 75 336 1.7 6.1 0.00 0.00 0.00 59 1014.6
20260905233154 75 0 2.6 7.8 0.00 0.00 0.00 59 1014.6
20260905232916 75 358 5.2 7.8 0.00 0.00 0.00 59 1014.5
20260905232156 75 345 3.5 6.1 0.00 0.00 0.00 59 1014.6
20260905231655 75 0 5.2 6.1 0.00 0.00 0.00 59 1014.6
20260905231154 75 354 4.3 5.2 0.00 0.00 0.00 59 1014.6
20260905230655 75 319 3.5 5.2 0.00 0.00 0.00 58 1014.6
20260905230154 75 0 3.5 5.2 0.00 0.00 0.00 58 1014.6
20260905225921 75 351 2.6 5.2 0.00 0.00 0.00 58 1014.7
20260905225153 76 354 1.7 6.1 0.00 0.00 0.00 58 1014.8
20260905224654 76 357 4.3 6.1 0.00 0.00 0.00 57 1014.9
20260905224155 76 0 4.3 10.4 0.00 0.00 0.00 57 1014.9
20260905223653 76 0 4.3 10.4 0.00 0.00 0.00 57 1015.0
20260905223153 76 0 7.8 10.4 0.00 0.00 0.00 55 1014.9
20260905222916 76 0 5.2 7.8 0.00 0.00 0.00 53 1014.9
20260905222414 76 0 3.5 7.8 0.00 0.00 0.00 52 1014.8
20260905222355 76 341 4.3 6.1 0.00 0.00 0.00 52 1014.9
20260905221153 76 340 4.3 8.7 0.00 0.00 0.00 53 1014.8
20260905220654 77 0 4.3 9.6 0.00 0.00 0.00 53 1014.9
20260905220153 77 0 5.2 9.6 0.00 0.00 0.00 53 1014.8
20260905215653 77 0 5.2 7.8 0.00 0.00 0.00 53 1014.8
20260905215152 77 310 4.3 8.7 0.00 0.00 0.00 53 1014.9
20260905214652 77 0 4.3 8.7 0.00 0.00 0.00 52 1015.0
20260905214417 77 0 4.3 6.1 0.00 0.00 0.00 50 1015.0
20260905213652 78 0 3.5 8.7 0.00 0.00 0.00 48 1015.1
20260905213152 78 0 5.2 8.7 0.00 0.00 0.00 47 1015.0
20260905212652 78 0 4.3 7.8 0.00 0.00 0.00 44 1014.9
20260905212151 78 0 4.3 8.7 0.00 0.00 0.00 43 1014.8
20260905211651 78 0 5.2 10.4 0.00 0.00 0.00 43 1014.8
20260905211151 78 0 7.8 10.4 0.00 0.00 0.00 43 1014.9
20260905210916 78 0 6.1 9.6 0.00 0.00 0.00 44 1014.9
20260905210151 78 0 3.5 8.7 0.00 0.00 0.00 45 1014.9
20260905205650 78 0 4.3 8.7 0.00 0.00 0.00 45 1014.9
20260905205419 78 0 5.2 9.6 0.00 0.00 0.00 46 1015.0
20260905204650 78 18 5.2 9.6 0.00 0.00 0.00 46 1015.0
20260905204416 78 0 5.2 8.7 0.00 0.00 0.00 46 1015.1
20260905203916 78 327 4.3 8.7 0.00 0.00 0.00 46 1015.2
20260905203151 78 0 5.2 8.7 0.00 0.00 0.00 47 1015.1
20260905202651 78 0 4.3 8.7 0.00 0.00 0.00 48 1015.1
20260905202151 78 3 4.3 7.8 0.00 0.00 0.00 49 1014.9
20260905201650 77 0 4.3 6.1 0.00 0.00 0.00 50 1014.9
20260905201151 77 0 3.5 7.8 0.00 0.00 0.00 51 1015.0
20260905200650 77 0 5.2 7.8 0.00 0.00 0.00 51 1015.0
20260905200136 77 30 5.2 11.3 0.00 0.00 0.00 52 1015.0
20260905195636 77 0 6.1 11.3 0.00 0.00 0.00 52 1015.0
20260905195626 77 0 7.0 11.3 0.00 0.00 0.00 52 1015.1
20260905194635 77 0 7.8 10.4 0.00 0.00 0.00 52 1015.1
20260905194134 78 0 7.8 12.2 0.00 0.00 0.00 51 1015.1
20260905193858 78 0 8.7 13.0 0.00 0.00 0.00 51 1015.1
20260905193135 78 0 8.7 13.0 0.00 0.00 0.00 50 1015.2
20260905192833 78 0 7.0 10.4 0.00 0.00 0.00 50 1015.1
20260905192107 78 0 6.1 12.2 0.00 0.00 0.00 50 1015.1
20260905191606 78 0 7.0 12.2 0.00 0.00 0.00 50 1015.0
20260905191105 78 31 6.1 11.3 0.00 0.00 0.00 50 1015.0
20260905190606 78 0 6.1 12.2 0.00 0.00 0.00 50 1015.0
20260905190107 78 0 8.7 13.9 0.00 0.00 0.00 50 1015.0
20260905185605 78 0 8.7 13.9 0.00 0.00 0.00 49 1015.0
20260905185105 78 0 6.1 13.0 0.00 0.00 0.00 49 1015.0
20260905184605 78 0 7.8 13.0 0.00 0.00 0.00 49 1015.0
20260905184057 78 0 7.8 13.0 0.00 0.00 0.00 49 1014.9
20260905183558 78 11 9.6 15.6 0.00 0.00 0.00 49 1014.9
20260905183057 78 0 7.8 15.6 0.00 0.00 0.00 49 1014.9
20260905182558 78 0 9.6 18.2 0.00 0.00 0.00 48 1014.7
20260905182055 78 0 11.3 18.2 0.00 0.00 0.00 48 1014.7
20260905181548 78 0 9.6 19.1 0.00 0.00 0.00 48 1014.7
20260905181048 78 0 12.2 19.1 0.00 0.00 0.00 48 1014.7
20260905180547 78 0 12.2 17.4 0.00 0.00 0.00 49 1014.7
20260905180048 78 0 12.2 19.1 0.00 0.00 0.00 49 1014.7
20260905175549 78 23 9.6 19.1 0.00 0.00 0.00 50 1014.7
20260905175046 78 0 11.3 17.4 0.00 0.00 0.00 50 1014.7
20260905174547 78 0 9.6 17.4 0.00 0.00 0.00 49 1014.6
20260905174315 78 358 11.3 15.6 0.00 0.00 0.00 49 1014.7
20260905173546 78 0 7.0 17.4 0.00 0.00 0.00 50 1014.7
20260905173047 78 0 9.6 17.4 0.00 0.00 0.00 51 1014.5
20260905172546 78 4 9.6 15.6 0.00 0.00 0.00 51 1014.6
20260905172046 78 0 8.7 15.6 0.00 0.00 0.00 51 1014.6
20260905171547 78 0 9.6 18.2 0.00 0.00 0.00 51 1014.5
20260905171317 78 0 12.2 18.2 0.00 0.00 0.00 51 1014.4
20260905170546 78 0 12.2 17.4 0.00 0.00 0.00 52 1014.4
20260905170046 78 0 10.4 16.5 0.00 0.00 0.00 53 1014.4
20260905165545 78 0 9.6 15.6 0.00 0.00 0.00 54 1014.5
20260905165045 78 0 9.6 18.2 0.00 0.00 0.00 54 1014.5
20260905164546 78 0 9.6 18.2 0.00 0.00 0.00 54 1014.5
20260905164046 78 0 10.4 16.5 0.00 0.00 0.00 54 1014.5
20260905163547 78 0 13.0 16.5 0.00 0.00 0.00 54 1014.5
20260905163311 78 0 9.6 16.5 0.00 0.00 0.00 54 1014.3
20260905162545 78 0 9.6 16.5 0.00 0.00 0.00 54 1014.3
20260905162306 78 0 10.4 19.1 0.00 0.00 0.00 54 1014.3
20260905161545 78 0 10.4 19.1 0.00 0.00 0.00 54 1014.2
20260905161045 78 0 15.6 20.0 0.00 0.00 0.00 53 1014.1
20260905160547 78 0 13.0 20.0 0.00 0.00 0.00 53 1014.4
20260905160046 78 0 16.5 20.0 0.00 0.00 0.00 52 1014.4
20260905155544 79 0 14.8 20.0 0.00 0.00 0.00 52 1014.4
20260905155044 79 0 13.9 25.2 0.00 0.00 0.00 52 1014.2
20260905154545 79 0 16.5 25.2 0.00 0.00 0.00 51 1014.1
20260905154045 79 0 16.5 20.9 0.00 0.00 0.00 51 1014.0
20260905153810 79 0 16.5 22.6 0.00 0.00 0.00 51 1013.9
20260905153043 79 14 18.2 22.6 0.00 0.00 0.00 51 1013.9
20260905152544 79 0 15.6 24.3 0.00 0.00 0.00 51 1013.8
20260905152044 79 0 13.0 24.3 0.00 0.00 0.00 52 1014.0
20260905151544 80 0 14.8 20.9 0.00 0.00 0.00 52 1014.1
20260905151044 80 0 9.6 20.0 0.00 0.00 0.00 52 1014.0
20260905150543 80 0 15.6 20.9 0.00 0.00 0.00 52 1013.9
20260905150045 80 0 14.8 20.9 0.00 0.00 0.00 51 1013.9
20260905145545 79 0 13.9 23.5 0.00 0.00 0.00 52 1013.7
20260905145539 80 0 18.2 23.5 0.00 0.00 0.00 52 1013.8
20260905144541 80 0 16.5 22.6 0.00 0.00 0.00 50 1014.0
20260905144041 80 0 15.6 26.1 0.00 0.00 0.00 51 1013.9
20260905143539 80 0 18.2 26.1 0.00 0.00 0.00 51 1014.0
20260905143040 80 0 17.4 26.9 0.00 0.00 0.00 50 1013.9
20260905142536 80 0 17.4 26.9 0.00 0.00 0.00 50 1014.0
20260905142312 81 0 15.6 19.1 0.00 0.00 0.00 51 1014.0
20260905141534 81 343 13.0 22.6 0.00 0.00 0.00 51 1014.0
20260905141034 81 25 16.5 22.6 0.00 0.00 0.00 50 1013.9
20260905140533 81 0 13.9 20.0 0.00 0.00 0.00 50 1013.8
20260905140033 81 0 14.8 20.0 0.00 0.00 0.00 51 1013.8
20260905135535 81 0 14.8 20.0 0.00 0.00 0.00 53 1013.7
20260905135032 81 0 12.2 20.0 0.00 0.00 0.00 52 1013.7
20260905134533 81 0 12.2 20.0 0.00 0.00 0.00 52 1013.7
20260905134033 81 0 13.0 20.0 0.00 0.00 0.00 51 1013.7
20260905133532 81 0 9.6 22.6 0.00 0.00 0.00 53 1013.7
20260905133033 80 0 13.9 22.6 0.00 0.00 0.00 53 1013.6
20260905132531 81 0 14.8 22.6 0.00 0.00 0.00 53 1013.7
20260905132033 81 0 12.2 25.2 0.00 0.00 0.00 50 1013.6
20260905131533 82 0 14.8 25.2 0.00 0.00 0.00 48 1013.9
20260905131259 82 0 16.5 26.1 0.00 0.00 0.00 48 1013.7
20260905130527 82 0 12.2 26.1 0.00 0.00 0.00 48 1013.6
20260905130023 82 0 13.0 22.6 0.00 0.00 0.00 46 1013.6
20260905125524 83 0 12.2 22.6 0.00 0.00 0.00 46 1013.6
20260905125021 82 0 13.0 22.6 0.00 0.00 0.00 47 1013.7
20260905124522 82 0 18.2 20.9 0.00 0.00 0.00 48 1013.5
20260905124019 82 0 13.9 22.6 0.00 0.00 0.00 48 1013.9
20260905123517 82 0 16.5 22.6 0.00 0.00 0.00 46 1014.0
20260905123015 83 0 13.0 26.1 0.00 0.00 0.00 45 1013.6
20260905122516 82 0 20.0 26.9 0.00 0.00 0.00 44 1013.8
20260905122008 82 0 20.0 26.9 0.00 0.00 0.00 45 1013.5
20260905121507 83 0 18.2 24.3 0.00 0.00 0.00 44 1013.8
20260905121006 83 0 18.2 23.5 0.00 0.00 0.00 42 1013.7
20260905120507 84 0 13.9 23.5 0.00 0.00 0.00 42 1013.6
20260905120005 83 0 14.8 23.5 0.00 0.00 0.00 42 1014.1
20260905115505 83 0 15.6 23.5 0.00 0.00 0.00 41 1013.8
20260905115230 84 0 12.2 20.0 0.00 0.00 0.00 41 1013.9
20260905114505 84 0 11.3 16.5 0.00 0.00 0.00 40 1013.8
20260905114006 83 0 12.2 18.2 0.00 0.00 0.00 42 1013.9
20260905113505 82 0 13.9 20.0 0.00 0.00 0.00 45 1013.9
20260905113006 82 16 14.8 25.2 0.00 0.00 0.00 44 1013.9
20260905112506 82 0 15.6 25.2 0.00 0.00 0.00 44 1013.7
20260905112006 82 0 13.0 25.2 0.00 0.00 0.00 46 1013.6
20260905111733 81 0 18.2 25.2 0.00 0.00 0.00 47 1013.6
20260905111005 82 0 15.6 22.6 0.00 0.00 0.00 46 1013.6
20260905110505 81 0 16.5 22.6 0.00 0.00 0.00 47 1013.6
20260905105943 81 3 14.8 22.6 0.00 0.00 0.00 49 1013.6
20260905105703 81 0 15.6 24.3 0.00 0.00 0.00 50 1013.5
20260905104938 81 0 17.4 24.3 0.00 0.00 0.00 47 1013.8
20260905104438 82 0 13.0 24.3 0.00 0.00 0.00 48 1013.7
20260905103937 81 0 17.4 24.3 0.00 0.00 0.00 48 1013.5
20260905103704 82 0 14.8 22.6 0.00 0.00 0.00 49 1013.9
20260905102937 82 0 14.8 22.6 0.00 0.00 0.00 48 1013.7
20260905102438 82 0 13.0 20.9 0.00 0.00 0.00 49 1013.7
20260905101937 82 0 13.9 22.6 0.00 0.00 0.00 49 1013.8
20260905101436 81 0 12.2 22.6 0.00 0.00 0.00 50 1013.8
20260905100937 82 0 13.0 20.9 0.00 0.00 0.00 49 1013.8
20260905100700 82 0 16.5 22.6 0.00 0.00 0.00 45 1013.9
20260905095936 83 0 11.3 23.5 0.00 0.00 0.00 46 1013.3
20260905095436 82 0 16.5 23.5 0.00 0.00 0.00 46 1013.7
20260905094936 82 6 14.8 22.6 0.00 0.00 0.00 45 1013.9
20260905094437 82 0 13.9 19.1 0.00 0.00 0.00 46 1013.8
20260905093936 82 0 13.0 18.2 0.00 0.00 0.00 45 1013.8
20260905093436 82 344 13.0 22.6 0.00 0.00 0.00 46 1014.0